Theta_e
350 351 350 351 352 351 351 351 350 350 351 352 353 352 349 348 349 349 350 351 351 350 349 349 348 349 349 348 348 348 349 350 350 348 342 339 339 341 341 340 339 339 338 339 339 339 340 339 338 337 338 338 339 340 341 343 344 345 346 348 347 348 349 348 348 348 348 348 349 348 348 346 347 346 347 347 346 347 346 345 346 346 345 344 344
351 352 352 352 352 352 351 351 351 350 350 351 353 352 348 347 348 348 348 349 350 349 348 348 348 349 348 347 348 348 349 350 350 350 349 344 338 339 340 340 340 340 339 340 340 340 341 341 340 341 342 343 344 345 346 348 348 348 349 348 348 349 349 348 348 348 349 348 348 348 346 346 347 346 346 346 346 346 345 345 346 346 345 344 345
352 353 352 352 352 351 351 351 351 352 351 352 352 351 349 349 348 347 348 349 347 347 348 347 348 349 348 348 347 347 347 349 350 350 351 347 339 337 340 340 341 341 342 343 343 343 343 343 343 344 345 346 347 348 349 349 348 348 349 348 348 349 348 348 348 348 348 348 348 347 346 346 346 346 345 345 345 345 345 344 345 345 345 344 344
352 351 351 351 351 351 351 352 352 353 353 354 353 353 352 350 349 349 348 350 350 349 349 346 347 347 346 346 345 345 344 346 347 349 350 350 346 341 338 338 340 341 341 342 342 343 343 342 343 343 343 345 345 347 348 348 348 348 348 347 348 348 348 348 348 347 347 347 347 346 345 345 345 345 345 344 344 344 344 343 344 344 344 344 343
351 350 352 352 352 352 353 353 352 354 355 355 354 352 351 351 351 350 350 351 351 351 350 346 346 345 344 345 344 344 344 343 343 345 348 351 351 348 342 338 337 337 338 339 339 341 341 340 340 341 341 341 342 343 345 346 347 347 348 348 348 346 346 346 348 346 345 345 345 345 345 345 345 345 344 343 343 343 343 343 343 343 343 343 343
352 351 352 352 352 354 354 354 354 354 355 355 354 352 350 350 351 351 352 350 349 350 349 347 347 345 344 344 344 345 345 343 342 344 347 349 351 352 350 348 344 339 336 336 336 336 337 336 336 336 337 337 337 337 338 341 342 343 344 344 342 341 340 341 342 342 341 341 342 342 342 343 344 343 342 341 339 339 338 339 339 340 340 341 342
354 352 351 352 354 354 354 355 356 354 354 356 355 354 352 351 351 351 352 351 351 350 350 349 347 346 345 345 347 349 347 345 345 345 346 347 349 351 352 352 351 348 343 341 339 336 335 335 334 334 335 335 336 336 337 338 339 339 340 339 338 338 338 338 338 337 337 337 338 339 340 341 340 340 340 338 337 335 334 334 334 336 336 337 340
356 353 350 351 354 356 355 354 357 356 355 356 355 355 354 352 353 352 351 351 351 351 350 349 347 348 348 349 350 351 350 349 349 347 347 348 349 350 350 351 352 352 351 350 349 343 340 340 338 338 339 339 339 339 339 338 338 339 339 340 339 339 339 338 336 336 337 338 338 339 340 340 339 339 339 337 337 336 335 333 333 332 333 334 336
355 353 351 352 353 356 353 351 355 356 356 356 352 352 355 354 354 353 352 351 351 350 352 350 349 350 349 349 351 351 352 352 350 349 349 349 349 349 350 350 351 352 352 352 353 349 344 342 341 340 340 340 340 339 338 336 335 335 337 337 337 337 336 335 335 336 337 338 338 339 340 339 339 339 339 338 338 337 337 336 336 334 334 335 335
355 353 352 352 354 356 352 351 352 352 355 356 351 350 353 354 354 354 353 351 349 349 351 350 349 349 348 349 351 351 352 351 349 349 351 351 350 349 349 351 351 351 352 352 353 352 350 349 348 346 342 340 342 341 339 336 334 333 333 332 331 332 332 333 333 334 335 336 338 338 339 340 340 340 341 341 341 342 342 341 341 341 340 341 340
354 354 352 352 354 354 352 352 351 351 354 355 354 353 353 355 356 356 355 353 351 351 350 350 349 349 349 350 351 352 351 350 350 351 351 349 349 348 347 350 350 351 350 350 352 353 353 352 350 353 350 344 347 348 342 338 339 337 334 332 330 330 330 330 331 333 335 336 337 339 340 341 342 343 343 343 343 344 344 344 344 345 345 345 345
353 354 353 352 354 353 353 352 351 351 354 355 355 355 355 355 355 356 357 356 354 353 353 352 351 350 350 352 352 352 351 350 349 350 348 347 346 347 346 347 349 350 348 349 351 353 352 351 351 354 355 351 352 354 348 344 344 342 338 336 332 331 330 331 333 335 336 338 339 341 341 342 343 343 344 344 344 344 345 345 344 345 345 345 346
353 353 354 355 354 353 353 353 351 352 357 357 355 357 358 356 356 357 357 357 354 353 353 352 352 353 352 350 348 349 350 350 350 347 346 345 344 346 346 346 347 347 348 346 346 349 349 350 352 354 353 352 353 355 353 350 348 342 339 338 335 334 334 335 337 338 339 340 341 342 343 343 343 344 344 344 344 344 344 344 344 344 345 345 345
352 354 356 355 354 353 354 354 353 355 357 357 356 357 359 358 357 357 357 355 354 352 352 352 352 352 350 350 351 350 347 348 349 346 343 343 342 343 344 345 347 344 345 342 341 347 350 350 351 352 351 351 354 355 353 354 353 344 338 337 337 338 338 339 341 341 341 341 342 343 343 343 342 343 343 344 344 345 345 345 345 345 345 346 346
352 354 355 355 355 354 354 353 353 353 355 357 356 356 359 359 356 356 357 354 352 351 350 351 351 348 351 357 356 354 355 351 346 343 341 341 340 341 343 344 345 343 343 345 345 346 348 348 348 348 348 351 352 353 353 354 353 347 341 339 339 340 340 341 341 341 341 341 342 342 342 342 342 344 346 348 348 349 349 350 350 351 351 351 350
355 355 353 354 355 354 353 353 353 353 355 359 357 353 357 359 357 357 357 354 350 350 350 351 350 351 358 361 355 358 366 358 344 342 341 341 340 339 342 343 339 341 342 346 347 344 343 347 348 346 348 350 349 350 353 353 353 351 349 349 351 352 348 343 340 341 342 341 341 340 342 346 348 351 351 352 353 354 354 355 355 356 356 355 355
357 357 355 355 355 355 353 352 354 354 356 359 357 354 357 359 358 357 356 353 349 349 349 350 349 352 356 361 364 369 367 353 349 352 342 340 343 336 339 343 338 341 346 347 345 342 343 346 346 345 346 351 352 352 354 353 351 352 354 358 359 356 350 343 340 339 340 340 341 344 348 351 353 354 355 356 357 357 357 358 358 358 358 357 357
357 357 357 356 353 355 355 355 356 358 358 359 357 357 358 358 358 357 355 352 350 348 349 350 350 350 349 352 359 362 360 351 359 369 351 338 341 338 340 340 338 342 345 346 342 340 344 345 343 345 347 350 352 351 351 351 351 354 357 358 352 347 344 342 341 341 341 343 346 350 352 354 356 356 357 358 358 358 358 358 358 358 357 355 353
357 357 357 356 352 353 358 359 358 360 360 359 359 358 357 356 357 357 355 353 351 350 350 349 349 350 348 347 344 346 352 350 360 377 373 357 346 340 340 337 339 344 341 341 342 340 344 343 343 348 347 348 350 350 351 355 354 356 359 355 346 343 345 345 345 346 347 349 350 353 355 356 357 357 358 358 358 358 358 358 357 355 352 348 344
357 358 358 358 356 353 358 361 359 359 359 359 358 357 357 357 357 358 356 355 355 354 353 351 350 349 349 349 345 344 347 345 349 363 373 378 367 345 341 340 340 344 341 341 343 341 341 339 343 347 346 348 351 351 354 354 351 352 353 349 346 348 351 350 351 351 351 351 353 356 356 356 357 357 357 358 358 358 356 355 352 349 345 340 336
358 359 359 360 356 352 357 361 359 358 359 359 358 357 358 358 358 358 356 355 356 355 354 353 352 351 349 351 351 347 346 343 344 347 353 370 372 350 341 344 342 340 339 341 342 340 338 338 341 345 347 351 352 353 355 352 347 346 344 344 349 352 353 354 354 353 351 354 355 356 357 357 357 357 357 358 357 354 352 350 346 343 339 335 330
358 359 360 360 355 352 358 361 358 358 358 358 358 359 360 359 359 358 356 356 356 355 355 355 355 354 350 350 351 351 348 345 345 346 345 353 360 352 342 344 345 342 341 342 342 341 338 340 343 344 348 352 352 354 355 352 352 348 341 347 357 355 353 355 354 353 354 356 357 357 358 357 357 357 356 354 351 350 348 345 343 339 334 329 325
358 359 359 360 357 355 358 359 358 357 357 358 358 357 359 359 358 358 358 357 356 356 355 356 356 354 350 348 349 349 349 347 345 345 346 348 357 356 345 342 343 341 342 342 342 342 341 342 346 347 352 353 352 353 356 358 359 349 342 351 361 359 355 354 355 355 356 356 358 358 358 357 355 353 351 348 347 346 345 343 339 334 328 323 320
357 359 359 358 359 359 358 358 357 355 356 359 359 357 356 358 358 359 359 358 358 358 356 356 354 352 351 349 347 348 345 344 343 342 344 347 351 354 348 346 349 344 340 339 339 341 344 347 349 350 353 357 357 352 353 362 359 347 345 354 361 362 359 354 354 356 357 357 357 357 356 354 350 347 346 345 345 344 343 339 333 327 322 319 318
357 358 358 358 359 359 358 358 358 357 358 360 360 359 358 358 360 359 359 360 360 359 356 356 355 352 353 350 347 348 344 342 342 341 344 344 345 350 349 348 351 347 341 339 340 341 343 347 352 352 350 354 359 351 348 360 357 344 351 359 361 364 361 353 354 357 357 356 355 355 353 349 345 344 345 345 344 341 338 332 327 323 319 318 318
358 358 356 357 359 359 359 360 359 360 361 360 361 361 360 361 361 358 360 360 359 359 357 356 356 354 355 353 350 348 346 344 342 341 344 344 343 348 351 351 354 348 341 339 340 342 344 345 348 352 350 350 356 352 346 356 356 347 355 361 361 364 361 353 354 358 355 353 353 352 347 343 342 343 344 343 340 337 333 328 323 319 318 319 318
358 357 355 355 357 359 360 361 361 362 361 360 362 362 359 361 360 359 360 359 358 360 359 356 357 356 354 353 351 350 349 348 345 344 346 348 348 347 350 358 364 360 349 341 340 340 342 348 350 353 355 351 354 355 353 356 356 349 355 361 362 364 361 353 355 357 353 351 352 349 342 340 343 341 341 340 337 333 329 324 320 318 319 320 319
356 355 355 355 355 358 360 361 362 363 362 361 363 362 358 359 360 360 362 360 359 361 360 359 358 356 354 352 352 351 351 350 349 349 351 351 351 348 347 354 366 370 365 359 353 345 341 349 352 355 357 351 352 358 358 357 358 354 354 359 363 363 358 354 357 357 354 352 352 348 342 340 340 339 339 338 334 331 328 322 319 319 320 320 319
354 355 356 355 355 357 358 359 360 362 362 362 363 362 361 361 360 362 362 360 360 362 361 361 360 357 354 352 353 352 351 351 350 350 352 353 352 351 350 350 358 369 374 373 368 353 346 348 349 355 357 351 354 359 358 357 358 357 354 356 363 362 356 356 359 359 357 354 352 350 346 342 340 339 339 337 333 330 327 322 319 320 321 319 318
353 353 354 356 356 357 356 357 358 359 360 361 361 362 364 364 362 363 363 360 362 363 362 361 361 359 355 352 352 352 351 351 349 349 352 355 352 351 351 348 350 360 366 373 373 359 350 350 349 353 357 353 353 355 356 357 356 356 355 355 362 362 358 358 360 360 359 355 354 352 350 346 342 340 339 336 333 330 326 322 320 321 321 319 318
350 351 353 355 356 357 357 356 356 357 357 358 359 360 362 363 362 364 363 361 363 365 364 361 360 360 357 354 353 352 352 352 350 350 352 355 353 351 351 350 352 355 354 363 371 363 353 351 350 350 352 351 350 350 353 354 353 356 357 355 360 362 359 360 360 360 360 357 355 354 351 350 346 343 341 338 334 330 326 322 320 321 321 319 318
350 350 351 354 355 356 357 356 356 356 356 356 357 358 360 361 361 362 362 361 362 364 365 362 359 359 358 357 356 354 354 353 352 351 352 354 354 353 352 351 351 354 354 356 364 363 356 355 354 350 348 349 349 352 355 353 354 358 358 356 359 361 359 360 361 361 360 358 357 354 351 351 349 347 344 341 336 332 328 323 321 322 321 319 318
351 350 350 350 353 355 355 354 353 354 355 356 356 357 358 359 360 359 359 359 360 362 362 361 360 358 358 359 358 357 356 355 354 353 351 353 355 354 353 352 351 353 355 356 359 360 359 357 356 351 349 348 347 350 354 355 356 359 357 355 358 358 358 360 361 361 360 359 358 356 352 350 350 349 348 345 340 335 330 325 322 322 321 319 317
349 349 349 350 351 353 354 353 351 351 353 355 354 355 356 358 359 359 357 357 359 361 361 360 359 358 359 360 361 360 359 357 356 355 352 351 353 354 354 353 354 352 352 354 356 358 360 359 358 355 353 351 349 351 355 355 357 357 355 356 358 360 362 363 361 359 361 360 358 356 353 351 349 350 350 348 345 340 335 329 324 322 322 319 318
349 349 350 350 350 351 352 351 349 348 350 352 352 354 354 356 358 358 356 355 356 359 360 361 359 359 359 360 361 361 360 359 358 357 354 351 351 352 352 352 353 351 351 351 352 355 359 360 359 359 357 354 354 355 356 356 356 356 356 359 359 358 361 362 359 358 360 360 358 357 355 353 351 350 350 349 348 345 340 333 328 324 321 320 318
348 349 349 350 351 350 351 350 348 347 349 349 350 352 353 354 356 357 356 353 353 356 357 359 359 359 358 358 359 360 359 358 358 357 356 354 352 351 351 351 350 351 351 352 352 354 358 361 360 360 359 358 357 356 356 356 357 357 357 358 359 356 358 359 358 358 360 360 359 357 355 354 353 352 350 349 348 347 344 340 334 327 322 320 319
347 348 349 350 352 351 350 350 349 348 348 349 350 351 352 353 354 355 355 354 352 353 355 355 356 356 356 356 356 357 358 356 356 356 356 356 354 352 351 350 351 351 351 351 352 353 356 358 360 361 362 362 361 359 358 358 358 359 358 356 357 358 359 360 359 360 359 359 358 356 356 355 355 353 351 350 349 348 347 345 339 332 324 320 319
346 347 348 349 351 352 351 349 350 349 349 349 351 352 353 351 352 353 354 354 353 353 353 355 354 354 354 354 355 355 356 356 355 355 356 356 355 353 352 351 352 351 351 352 352 353 354 357 360 363 364 363 362 359 359 360 360 360 359 356 355 353 356 360 362 361 359 359 358 356 355 356 355 354 351 350 350 349 348 347 342 336 329 322 320
346 346 348 348 349 351 351 350 350 351 350 350 352 352 353 352 349 350 352 353 353 352 353 353 353 353 353 353 354 353 354 356 355 355 355 355 355 354 353 352 352 353 353 354 354 355 357 359 361 363 363 362 361 359 359 360 359 359 361 359 357 356 358 362 363 362 361 360 358 356 355 356 355 354 351 350 350 349 349 347 343 338 334 326 320
347 345 345 347 349 349 351 351 350 351 351 351 351 352 354 352 350 349 350 351 352 351 351 351 351 351 351 350 351 351 351 354 353 354 354 354 355 354 354 354 353 354 355 356 356 357 358 361 362 362 362 361 362 361 360 358 355 356 358 358 360 362 362 361 360 361 362 360 360 359 356 354 354 353 352 351 351 350 349 347 343 340 339 331 322
346 345 343 344 346 348 350 350 351 352 352 352 352 352 353 353 350 349 349 349 349 349 349 350 350 349 350 349 348 348 349 350 351 352 352 353 353 354 354 355 354 354 355 356 358 357 358 360 360 360 361 360 360 360 358 356 355 356 357 358 360 361 359 358 358 359 360 361 361 360 357 356 355 354 352 352 351 351 349 348 344 341 341 337 325
345 346 344 342 344 346 348 349 350 352 353 352 352 352 352 351 350 349 347 347 348 348 348 348 348 348 348 347 347 346 345 346 348 350 350 350 351 353 354 355 355 354 355 357 358 358 359 360 360 358 359 359 358 357 357 356 356 356 358 358 360 358 357 358 359 357 357 358 358 359 359 359 357 355 353 352 352 352 350 348 344 341 342 340 330
346 346 345 342 342 344 346 348 349 351 352 351 351 352 351 350 349 348 346 344 345 345 346 347 348 347 347 346 345 345 344 344 345 346 348 349 349 350 350 353 356 356 357 358 359 359 360 361 360 358 358 358 357 356 356 355 354 353 354 354 354 356 357 358 360 358 356 356 357 359 359 360 358 357 356 355 355 355 352 348 345 342 342 342 335
346 347 347 345 345 343 342 344 347 349 351 351 350 349 349 349 348 348 346 344 343 342 343 345 345 346 346 345 344 342 342 341 343 343 345 347 348 349 349 349 351 354 355 357 359 360 360 362 360 359 358 357 358 357 356 353 353 351 350 349 348 349 352 354 356 356 355 355 357 360 359 358 359 360 360 359 357 356 353 349 346 343 343 344 339
353 350 348 347 347 347 344 343 344 347 348 350 349 348 347 348 348 347 347 347 345 343 342 342 343 343 345 345 345 343 340 339 340 341 343 344 345 347 348 348 347 348 350 352 355 358 360 361 361 360 359 358 357 356 355 354 352 351 350 350 349 349 351 353 353 353 353 356 358 360 359 357 357 359 360 359 359 358 355 351 346 343 344 346 343
353 353 353 351 350 350 349 347 346 346 346 347 350 348 348 346 346 347 346 347 346 345 343 343 342 343 344 345 346 345 344 342 341 340 341 345 346 346 346 349 349 347 348 348 349 351 354 358 360 358 357 357 357 357 356 354 354 353 352 351 350 351 352 352 353 354 354 355 356 359 359 355 355 358 358 358 360 358 356 351 346 345 347 348 346
354 353 353 355 355 352 352 352 351 350 349 347 347 349 349 347 346 346 346 346 346 346 344 343 344 344 345 347 348 348 348 347 346 343 343 346 350 351 349 348 349 349 349 349 348 346 345 346 351 352 349 349 351 353 353 353 351 351 350 349 350 352 354 355 356 356 353 352 352 355 357 353 353 357 358 357 356 354 353 349 346 347 349 348 347
353 353 353 354 355 357 356 355 355 355 354 351 349 349 349 349 348 345 346 347 347 347 346 345 345 345 344 346 348 351 352 352 351 350 347 346 351 355 356 353 353 354 353 352 351 347 341 337 338 340 339 338 340 343 346 348 349 349 350 352 354 356 358 359 359 358 357 355 351 353 356 354 353 357 359 356 353 351 351 349 347 348 349 347 346
354 354 353 353 354 357 358 357 357 358 358 356 354 352 350 350 350 348 347 347 347 349 348 348 349 350 349 348 347 349 352 353 354 355 353 350 350 354 358 360 361 363 362 359 356 353 349 344 339 336 334 334 334 336 338 342 345 348 353 358 360 359 359 360 361 360 358 353 349 348 352 353 354 356 359 357 352 349 349 350 349 349 349 346 346
354 355 355 354 354 355 356 356 357 357 358 358 358 356 355 352 351 350 349 348 349 350 351 352 353 352 353 353 351 350 350 351 353 355 357 356 353 352 355 358 362 363 364 363 361 358 356 354 350 347 343 341 339 338 338 339 340 342 348 354 356 358 357 357 356 354 351 348 345 345 347 348 352 356 359 357 352 348 348 350 350 348 347 346 344
354 355 356 356 357 356 356 357 357 356 357 358 358 358 358 356 354 352 350 350 351 352 354 354 355 354 354 354 354 354 353 351 351 352 355 357 358 355 353 356 358 359 360 361 360 359 357 357 355 355 352 351 349 347 344 343 341 342 345 348 351 354 355 353 351 351 351 349 345 344 345 347 349 353 356 356 354 350 347 347 348 348 347 346 343
Wind_Speed
14 12 12 11 10 10 12 12 13 13 13 13 10 8 8 9 9 9 10 11 10 10 10 10 10 10 10 10 11 11 10 12 11 8 7 8 9 8 7 8 8 8 7 6 6 5 4 4 4 4 3 3 2 2 1 2 2 2 1 2 2 2 3 4 4 4 5 5 6 6 7 7 7 7 6 6 7 6 6 7 6 6 7 7 7
12 10 9 9 9 9 10 11 12 12 11 12 11 9 8 9 9 9 10 10 10 11 11 10 10 10 10 10 10 10 9 10 11 8 7 6 7 8 7 7 7 7 7 6 6 5 4 4 4 3 3 2 2 1 0 0 1 1 2 2 3 3 4 4 5 5 6 6 7 7 8 8 7 7 7 7 7 7 7 7 6 7 7 7 7
11 10 9 9 10 9 10 11 11 10 10 10 10 9 9 9 9 10 10 10 11 11 11 10 10 10 9 9 9 9 8 9 10 10 9 6 5 7 8 7 7 6 6 6 5 5 4 4 4 4 3 3 3 2 2 2 2 2 3 3 4 4 5 6 6 6 6 7 8 9 8 8 8 8 8 8 8 8 8 7 7 7 7 7 7
10 11 10 9 10 9 9 10 10 10 10 9 9 8 8 8 9 8 9 9 8 7 8 9 9 9 9 9 9 8 8 9 10 10 9 6 4 5 6 6 6 6 5 5 5 5 4 3 3 3 3 3 3 3 3 3 3 4 4 4 5 6 6 6 7 7 8 8 9 9 8 8 8 8 8 8 8 8 8 8 7 7 7 7 7
11 11 10 8 9 8 8 8 9 10 11 10 8 7 7 7 8 7 7 7 5 5 7 9 8 8 8 8 8 7 6 8 9 10 9 8 6 4 4 5 5 5 5 5 4 4 3 3 2 2 2 2 3 3 4 4 4 5 5 5 6 7 7 7 7 8 8 9 9 8 8 8 8 8 8 8 8 8 8 8 8 8 8 8 8
11 12 11 9 9 8 7 8 9 9 10 10 9 8 8 6 6 6 5 5 6 7 8 8 7 6 6 7 7 6 5 6 7 8 8 8 8 6 3 3 3 3 3 3 3 3 3 2 1 2 2 2 3 3 3 3 3 4 5 6 6 7 6 6 7 7 8 8 8 7 8 8 8 8 8 8 8 8 8 9 9 9 9 9 9
11 12 11 10 9 7 7 7 8 8 8 9 8 8 8 6 6 6 5 6 5 3 5 7 7 6 6 6 6 6 6 5 5 6 7 7 8 7 5 4 4 1 2 2 2 1 2 2 1 1 1 1 1 1 2 2 3 3 4 5 5 5 6 6 6 6 7 7 7 7 7 7 7 7 8 8 8 9 9 9 9 10 10 10 9
11 11 11 10 9 8 7 7 8 8 7 7 7 8 7 6 6 6 6 7 4 2 4 5 7 6 5 5 5 5 6 5 5 6 6 6 7 7 7 6 5 3 2 1 1 2 2 3 3 2 2 1 1 1 2 2 2 3 3 4 5 5 5 6 6 6 6 6 6 6 6 7 7 7 8 8 9 9 9 9 10 11 11 11 11
10 10 11 11 11 8 7 7 8 8 7 6 6 7 6 5 6 7 7 7 4 3 4 5 5 6 6 6 5 5 5 4 5 5 5 6 7 7 7 7 7 5 5 6 3 1 2 3 4 5 6 5 4 4 3 3 2 3 3 4 4 5 5 5 5 5 5 5 6 6 6 7 7 8 8 8 9 9 9 10 10 11 11 12 12
11 11 11 12 11 9 7 7 8 8 7 5 5 5 6 6 5 6 6 5 4 3 3 5 4 5 5 5 5 4 4 4 4 4 5 6 6 7 9 8 9 6 6 9 7 2 1 2 2 4 6 7 7 6 6 4 4 3 3 4 4 4 5 5 5 5 5 5 6 6 6 7 7 8 8 8 9 9 10 10 10 11 11 12 12
11 11 12 12 11 9 8 7 8 8 7 5 4 4 6 6 3 4 5 4 4 3 3 3 3 4 5 5 4 3 4 4 5 5 5 6 6 7 8 8 9 6 4 9 8 4 2 0 2 1 3 6 6 7 7 6 5 5 5 4 4 4 4 4 5 5 5 5 6 6 6 7 8 8 9 9 10 10 11 11 12 12 12 13 13
11 11 11 11 11 9 8 8 9 9 6 5 4 3 5 5 5 4 3 2 2 3 2 1 3 5 4 3 3 3 4 5 7 7 7 7 6 7 8 9 9 7 4 7 9 6 2 1 1 2 1 4 5 6 7 6 6 7 6 5 4 4 4 4 4 4 5 5 6 7 7 8 9 9 10 11 12 13 13 13 14 14 14 15 15
11 11 11 10 11 9 9 9 10 9 5 5 7 7 5 5 6 4 2 2 3 4 4 3 4 4 2 3 3 4 4 6 9 9 9 9 6 5 8 10 9 7 5 5 7 8 4 2 1 2 1 5 5 5 6 7 7 8 7 6 5 4 4 4 4 5 5 6 7 8 9 9 10 11 12 13 14 15 16 16 16 16 17 17 17
11 11 11 9 10 10 9 9 9 8 7 7 7 7 6 5 5 4 3 3 4 5 5 4 5 4 4 4 4 5 6 8 12 11 10 10 8 7 9 11 10 9 6 4 4 6 6 4 4 4 1 4 5 6 7 7 7 8 8 6 5 5 5 5 5 6 7 8 9 9 10 12 13 14 15 15 16 16 17 17 17 17 17 17 17
10 11 12 10 9 10 9 9 9 9 9 9 6 7 8 6 5 4 4 3 4 5 3 1 2 4 3 2 4 4 5 9 12 10 11 11 10 8 9 10 10 9 7 5 4 3 5 6 3 3 1 1 2 5 7 7 7 8 8 7 6 6 6 7 8 9 9 10 11 12 13 14 14 15 15 15 15 15 15 15 15 15 15 15 16
9 9 11 10 9 9 10 9 9 10 10 9 9 9 9 7 5 4 4 4 5 5 2 1 3 3 1 3 3 2 1 5 7 4 2 7 12 6 6 10 7 6 6 6 7 3 4 4 1 1 3 2 1 2 4 6 7 8 9 8 7 8 10 11 12 12 12 12 12 13 13 14 14 13 13 13 13 13 13 13 13 14 14 14 15
10 8 8 10 9 9 10 10 9 9 8 8 9 8 8 6 6 5 2 2 6 6 3 3 3 1 3 2 0 0 1 2 2 0 9 2 10 6 6 9 6 6 4 5 7 4 6 6 2 3 4 1 0 2 3 5 7 7 8 8 9 11 13 13 13 12 12 12 11 12 12 12 12 12 12 12 12 12 13 13 13 13 13 14 14
10 9 8 10 11 10 10 9 9 9 8 8 8 8 8 7 7 5 3 3 5 6 5 4 3 1 1 3 3 1 1 4 3 0 7 6 7 5 10 8 4 7 5 6 7 6 9 7 3 5 5 2 2 3 3 4 5 5 6 8 10 11 11 11 10 9 9 10 10 10 10 10 11 11 12 12 12 12 12 12 12 12 12 13 14
12 11 9 9 10 11 11 9 8 9 8 7 7 8 8 8 7 5 5 5 3 4 6 5 3 2 1 1 3 3 3 4 3 1 2 3 5 0 11 10 7 9 9 11 10 9 9 4 6 8 5 4 3 4 2 2 3 5 7 10 11 10 9 9 8 8 8 8 8 8 9 10 11 12 13 13 12 11 10 10 10 11 12 13 15
13 12 11 10 9 10 11 10 9 8 8 7 8 8 8 8 7 6 7 6 3 3 4 4 2 1 2 3 3 4 2 3 3 2 2 0 4 4 5 10 11 8 7 9 8 9 6 2 6 10 5 4 2 2 1 1 4 7 9 9 9 9 9 9 8 8 8 7 7 8 9 10 12 13 13 12 11 10 10 9 10 11 12 14 15
13 12 13 12 11 11 10 8 9 9 8 8 8 8 7 8 7 7 7 6 4 3 3 2 1 2 2 4 5 2 1 3 5 3 2 1 1 2 1 3 6 4 3 5 5 7 5 2 5 9 6 5 4 3 1 3 3 7 9 7 8 10 9 9 8 8 7 6 7 7 9 10 13 13 12 11 10 10 10 10 10 11 13 14 14
13 12 13 11 10 11 10 8 8 8 7 8 8 7 8 8 7 7 6 5 5 4 3 2 2 2 3 1 2 3 3 2 5 3 0 1 3 2 3 5 5 4 5 6 5 5 6 4 5 7 7 6 5 2 2 3 1 7 9 5 7 10 10 9 8 7 6 6 7 8 9 11 12 12 11 10 10 9 10 10 11 13 14 14 13
13 13 13 11 9 9 9 9 9 8 7 7 8 7 7 8 7 7 6 6 6 4 4 3 1 1 2 3 3 2 1 2 2 2 2 2 3 5 3 3 7 6 5 4 3 3 4 4 5 5 6 3 1 0 3 5 4 8 10 6 5 8 10 9 7 6 6 6 7 8 10 11 11 11 10 9 9 9 10 11 13 13 13 12 13
14 13 13 12 11 10 9 10 9 8 7 6 7 8 7 7 8 8 7 6 6 5 4 4 3 3 3 4 5 6 5 3 3 4 2 3 2 6 8 3 5 8 6 4 2 3 4 3 7 6 4 1 5 2 2 6 4 8 10 6 5 6 8 10 7 5 5 6 8 9 10 10 10 9 8 8 9 10 11 12 13 12 12 12 13
14 14 13 13 13 12 11 10 9 9 9 7 7 7 7 8 8 7 7 7 6 6 5 4 4 3 4 5 5 6 5 3 3 5 7 5 5 6 6 7 4 5 9 7 3 6 6 5 8 4 2 1 3 2 2 4 2 8 10 7 5 5 7 10 7 5 5 6 8 9 9 9 8 8 7 8 9 10 11 12 12 11 11 12 13
14 14 13 14 14 12 11 10 9 9 9 8 7 7 7 8 7 7 7 7 7 6 6 4 4 4 5 4 5 6 3 2 3 4 6 7 5 2 2 7 9 3 5 7 5 7 6 5 7 5 2 1 3 1 3 2 3 7 8 7 6 4 7 10 6 4 5 7 9 9 8 7 6 7 7 8 9 10 11 11 10 11 11 12 13
13 13 13 14 14 13 12 11 10 10 9 8 8 8 8 8 7 7 7 7 7 6 6 6 5 5 5 4 6 6 5 3 3 2 2 1 3 5 4 2 5 6 2 5 6 6 6 9 10 6 3 1 2 4 2 2 6 5 7 7 6 4 7 10 5 4 6 8 10 8 7 6 5 6 7 8 9 10 11 10 10 11 12 13 13
13 12 12 13 13 13 12 11 11 10 10 9 9 8 8 8 7 7 6 7 7 7 6 6 5 6 6 5 7 7 5 5 5 5 4 4 4 4 3 2 2 3 3 1 1 3 3 9 11 7 3 1 1 5 2 3 7 4 7 7 5 5 9 8 4 3 6 8 10 8 7 6 5 6 7 9 10 10 10 10 10 12 13 14 14
13 13 13 13 13 13 12 12 12 11 10 10 10 9 9 9 8 8 8 7 7 7 7 6 6 6 6 7 7 7 6 6 5 4 3 1 2 1 2 2 3 1 2 2 2 3 5 0 7 7 2 3 3 3 4 5 7 6 6 6 7 7 9 8 4 3 5 7 9 9 7 6 5 6 7 9 10 11 11 10 11 13 14 15 15
14 14 14 14 14 14 13 13 13 12 11 11 11 10 10 10 9 8 9 8 7 8 7 6 6 6 6 7 8 7 6 6 5 6 6 4 4 3 3 1 1 0 0 1 2 3 8 8 1 4 3 2 2 2 5 4 6 7 6 5 9 10 10 9 6 4 4 6 9 9 7 6 6 6 7 8 10 11 11 10 12 13 15 15 15
15 15 16 16 15 15 14 14 13 13 13 12 12 12 11 10 9 9 9 9 9 8 8 7 6 7 7 6 6 7 7 7 8 8 6 5 5 6 6 3 2 2 1 1 1 2 5 9 8 3 1 0 2 1 4 4 7 8 5 5 10 12 12 11 7 5 4 5 7 9 8 7 7 6 7 8 9 10 10 10 12 13 15 16 16
17 17 17 16 16 16 15 15 14 14 14 13 12 13 13 11 10 9 10 10 10 9 8 8 7 7 8 7 7 8 8 7 8 8 6 6 6 7 7 5 4 5 4 4 3 4 6 9 10 7 6 6 4 2 4 6 8 7 5 5 8 11 12 11 8 7 6 5 6 8 8 7 7 7 7 8 9 10 10 10 12 13 15 15 16
20 19 18 18 18 17 16 16 15 15 15 14 13 13 13 13 12 11 10 10 11 10 10 9 9 8 8 9 9 9 9 8 8 8 8 7 8 9 9 8 8 8 8 8 8 7 8 8 9 8 8 8 7 6 5 6 7 6 6 7 10 14 14 11 9 8 7 7 6 8 8 7 8 8 8 8 9 10 10 11 12 13 14 15 16
22 22 21 20 19 19 18 17 16 16 16 15 14 14 14 14 13 12 12 12 11 11 11 11 10 9 9 10 10 10 10 10 10 10 10 9 10 11 12 11 10 10 11 12 10 7 8 9 9 9 9 9 9 8 6 6 8 9 9 8 10 14 14 10 9 10 9 8 7 8 9 8 9 9 9 9 9 10 11 11 12 13 14 15 16
22 23 23 22 21 20 19 19 18 17 17 17 16 15 15 15 15 14 13 14 14 13 12 12 12 11 11 11 11 10 11 11 12 12 11 11 11 12 13 13 14 14 14 14 13 10 10 11 10 10 10 10 9 7 7 9 10 11 10 8 8 10 10 9 9 12 11 9 8 9 10 9 9 8 8 10 10 10 11 12 12 13 13 14 16
22 23 23 23 23 22 21 20 20 20 19 18 18 17 16 16 16 16 15 14 15 15 14 14 13 13 13 13 13 12 12 13 13 13 13 13 13 13 12 11 13 14 12 12 13 13 11 11 11 11 11 11 11 10 10 11 11 10 10 10 10 10 8 8 10 13 12 9 9 10 10 10 9 8 8 9 10 10 10 12 13 13 13 14 15
23 24 24 23 24 25 25 22 21 22 21 20 20 19 18 18 17 16 16 15 15 15 15 15 15 14 15 15 14 14 14 14 15 14 14 14 14 14 14 13 13 14 12 11 12 12 12 13 14 13 12 12 12 12 12 11 11 10 10 11 11 11 10 9 9 11 10 10 11 11 10 11 10 8 7 8 8 8 8 10 11 12 13 13 14
23 24 25 25 24 25 27 26 23 23 23 22 22 21 20 19 19 18 17 17 17 16 16 16 16 16 16 16 16 16 16 16 16 16 16 16 16 15 15 15 14 14 15 15 15 15 15 15 15 14 14 14 14 14 13 12 12 12 11 12 12 11 12 11 9 10 12 13 13 12 11 12 12 10 8 8 7 7 7 8 9 10 12 13 12
24 23 24 26 26 26 27 27 26 25 25 25 24 23 23 21 20 20 19 18 19 18 18 18 17 17 17 17 18 18 18 19 18 18 17 17 17 17 17 17 16 15 15 16 16 17 16 16 15 15 16 16 16 16 13 12 12 13 12 13 14 14 12 10 9 11 13 13 13 13 13 13 13 12 10 9 8 8 7 7 7 8 11 12 11
25 24 24 25 26 26 25 27 27 26 26 27 26 25 25 24 21 21 21 21 20 20 20 20 19 19 19 19 19 20 20 21 21 20 19 18 18 18 18 18 18 17 17 17 16 16 16 17 16 16 16 16 14 13 12 12 13 14 14 14 16 14 11 10 10 12 13 14 13 13 14 14 13 13 12 11 11 9 8 7 5 6 10 11 10
26 25 24 24 25 26 26 26 27 26 26 27 28 27 27 27 25 23 22 22 22 21 21 21 20 20 20 20 20 20 21 23 24 23 22 20 19 19 19 19 19 19 18 19 18 17 16 15 15 14 14 14 13 13 14 16 17 18 17 16 16 15 12 11 11 11 11 13 13 13 14 14 13 14 14 13 12 11 10 9 6 5 8 10 8
25 26 26 25 24 25 27 27 27 26 25 26 28 29 29 29 28 26 24 24 24 23 23 22 22 22 21 21 21 21 21 23 24 25 25 24 22 21 20 19 19 20 19 19 18 18 17 16 15 14 14 14 15 15 17 19 18 19 18 16 17 17 14 12 11 11 11 13 15 15 14 14 14 14 15 15 14 13 12 11 9 5 7 9 8
24 24 26 26 25 23 24 27 27 26 25 25 27 30 31 31 30 28 27 26 25 25 25 24 24 23 22 22 22 22 22 23 24 24 25 26 25 24 24 22 21 20 20 19 19 18 18 17 16 16 15 16 17 17 17 16 15 14 12 10 10 11 9 8 9 11 12 13 14 14 14 15 15 15 17 17 14 13 14 14 11 8 6 8 8
24 23 23 25 26 25 24 24 25 26 26 26 27 29 31 32 32 30 28 27 26 26 27 27 27 26 25 24 24 23 23 23 24 24 25 26 26 26 27 26 25 24 23 22 22 21 20 19 18 18 18 18 18 18 17 15 14 13 12 11 12 11 11 11 11 13 14 13 14 14 15 17 16 16 19 18 15 13 15 15 14 10 7 8 8
20 21 23 24 24 25 26 25 24 25 26 28 28 28 30 32 33 33 30 27 26 26 26 27 28 27 27 26 26 25 25 24 24 25 27 28 28 28 28 29 29 29 29 28 27 25 23 22 21 21 21 20 20 20 19 17 16 15 14 15 15 15 15 15 15 16 15 14 13 13 15 19 18 16 19 18 17 17 17 17 15 12 9 9 9
24 21 19 22 23 25 26 27 26 25 24 26 29 31 31 32 33 35 34 30 27 26 26 26 26 27 27 28 28 27 27 27 26 26 26 28 29 30 31 31 31 31 32 33 33 32 31 29 27 26 25 24 23 23 22 19 18 17 17 17 18 18 18 18 18 18 17 16 16 14 15 21 21 18 19 17 16 19 20 18 17 14 11 10 8
20 21 20 20 23 25 27 28 28 28 26 26 27 30 33 34 33 34 36 35 31 28 27 26 25 26 26 26 27 27 28 28 28 27 25 25 26 29 31 32 33 33 33 34 35 35 36 37 37 36 34 32 29 28 26 23 22 22 22 22 22 20 20 20 20 20 20 19 19 17 18 23 22 19 19 17 16 17 19 18 18 16 13 11 8
21 22 22 22 23 23 25 27 27 28 29 29 28 28 30 32 34 35 36 37 35 32 29 28 27 27 27 26 26 26 26 26 27 27 27 25 24 25 27 30 31 32 33 34 35 35 36 38 41 42 41 39 37 35 32 28 26 24 23 23 23 22 21 21 20 21 20 17 17 18 21 24 23 20 18 15 15 17 18 19 19 17 16 13 10
19 21 24 25 24 22 23 25 26 27 27 27 29 30 29 28 30 35 37 37 36 34 31 30 28 27 27 28 28 27 26 26 25 25 26 27 26 25 25 26 27 28 29 30 31 31 32 33 36 38 39 39 39 39 38 34 31 27 23 21 22 21 21 18 16 18 18 17 17 17 19 20 20 20 18 14 14 16 17 19 20 19 17 15 12
19 21 24 24 24 23 23 23 24 26 27 26 25 26 29 28 28 31 36 36 34 33 31 30 29 28 27 27 28 29 30 30 28 27 25 26 29 29 28 26 26 27 26 26 25 27 28 28 30 31 33 35 35 36 38 37 36 33 30 28 25 22 20 18 17 18 19 21 22 19 18 18 17 17 17 15 14 16 17 19 20 20 19 16 14
16 18 20 21 20 22 22 21 22 24 25 26 25 23 24 27 27 28 32 34 32 31 30 28 28 28 29 29 29 30 32 32 32 32 30 28 29 31 31 29 28 28 28 27 26 26 27 28 29 31 32 32 32 33 34 35 36 36 36 35 31 26 24 22 22 17 13 18 24 21 19 20 18 17 18 14 9 10 17 20 20 20 20 18 16
Wind_Direction
144 145 143 142 141 140 138 132 131 131 136 142 138 139 135 127 130 127 129 132 124 120 123 120 117 116 117 118 116 120 126 128 132 132 128 136 144 148 150 147 147 147 152 156 151 147 144 147 149 140 135 131 126 122 99 64 43 33 18 0 341 328 320 321 320 318 320 320 320 321 318 319 323 324 324 325 327 328 327 328 327 326 327 329 329
141 139 137 139 140 137 136 134 131 126 127 133 137 143 134 123 124 122 127 129 122 119 118 116 117 117 118 121 120 124 128 131 136 140 136 140 143 148 149 146 152 159 160 158 152 157 164 167 171 165 164 173 171 177 187 1 325 321 325 317 307 306 303 305 309 308 310 313 313 313 315 317 319 317 317 318 319 319 318 317 316 316 317 320 320
144 137 139 142 135 131 138 141 137 132 129 131 134 134 128 120 113 113 120 118 114 115 116 115 116 121 122 122 124 128 135 141 143 146 151 160 152 145 149 153 161 171 171 170 173 181 188 187 190 193 192 199 201 207 237 267 288 290 293 293 287 289 293 297 301 304 306 307 307 308 312 315 313 312 313 313 313 312 312 312 309 308 311 311 311
136 132 131 129 125 122 129 133 135 135 130 129 125 120 122 116 109 113 115 110 103 103 114 119 116 123 128 128 133 139 150 156 152 149 155 168 167 147 148 155 168 179 181 180 188 195 201 205 206 216 214 215 220 221 238 255 270 281 286 291 288 287 291 297 299 300 299 298 300 304 307 308 308 308 308 308 307 306 308 308 305 303 303 302 301
133 130 125 126 128 122 117 121 127 127 122 121 118 116 117 109 108 110 106 101 93 100 114 119 120 127 134 136 140 145 157 161 153 148 157 167 172 176 160 155 164 174 185 188 195 204 211 222 220 233 241 234 241 238 243 253 255 267 279 283 283 287 287 288 292 292 292 294 298 300 301 302 303 304 304 303 302 302 304 303 301 299 296 295 296
137 132 127 126 123 118 116 111 113 118 118 120 120 119 113 114 127 117 112 109 97 114 125 120 126 135 134 131 135 139 140 146 144 143 155 162 166 181 189 192 184 152 159 166 177 202 200 212 224 225 244 247 256 263 263 265 269 275 280 282 284 292 295 293 296 297 299 302 305 308 308 306 305 305 304 303 304 304 305 304 302 298 295 293 291
127 127 132 130 118 112 117 114 113 117 120 118 115 123 123 131 139 121 118 109 83 115 137 124 127 133 130 130 139 144 135 131 136 140 145 152 163 175 185 212 237 204 137 130 112 131 163 162 164 184 219 243 259 289 313 306 303 300 296 301 305 308 313 313 313 313 313 313 315 318 319 318 316 313 311 311 312 312 313 313 311 307 304 298 291
128 127 133 134 126 118 127 136 124 114 121 117 109 127 132 121 112 103 107 105 93 126 124 127 134 131 135 138 141 144 141 145 153 150 146 154 161 169 180 200 223 239 255 241 126 84 89 102 103 97 98 67 36 22 358 343 329 323 318 319 320 320 322 322 321 321 321 322 322 322 323 322 322 319 318 318 317 317 319 319 317 315 313 308 303
137 131 128 128 124 119 131 140 122 115 127 116 106 121 126 112 95 91 99 102 114 129 115 130 137 136 147 143 141 145 143 149 154 145 148 161 166 172 179 184 193 212 234 237 238 123 94 83 94 92 81 69 53 45 35 22 0 344 334 324 320 320 318 316 318 319 321 322 323 323 322 321 322 322 321 320 319 320 320 319 318 317 316 313 311
140 130 126 129 130 130 134 129 118 119 120 97 95 111 116 113 91 85 89 91 106 111 117 138 142 142 144 135 140 153 147 151 159 156 158 166 182 186 178 179 185 193 212 214 225 236 154 69 77 108 82 64 55 48 37 38 32 13 356 338 328 321 316 315 315 317 320 322 322 323 322 322 322 322 321 321 321 320 319 317 316 314 313 311 311
140 127 123 132 139 139 131 123 122 122 113 92 84 89 104 115 110 97 90 88 105 115 127 143 135 123 122 125 139 155 154 169 178 176 181 177 186 192 177 179 187 187 196 200 211 238 217 343 322 191 91 49 35 36 31 32 28 13 2 348 336 326 321 319 320 322 324 325 325 324 322 321 320 319 318 317 317 315 314 313 310 309 307 306 306
141 131 126 133 137 139 136 132 137 137 123 103 109 114 107 116 131 127 100 84 115 136 131 101 91 98 106 125 147 181 183 201 199 182 187 181 185 208 188 169 178 184 175 179 193 202 182 56 351 230 80 14 355 12 20 15 11 4 357 347 339 332 328 326 327 328 327 324 322 319 318 317 315 314 314 313 312 311 309 307 306 304 303 302 302
144 137 133 137 137 140 142 139 141 142 130 115 129 135 127 128 141 163 183 171 189 158 123 124 120 113 155 163 168 195 190 204 208 194 183 174 175 206 185 163 166 179 173 163 182 187 168 63 80 192 34 2 338 348 357 349 350 352 349 343 338 335 332 331 328 323 319 315 311 311 311 310 311 311 311 311 310 309 308 307 305 305 304 304 303
146 138 137 139 140 144 146 146 146 143 138 130 133 136 140 152 155 175 175 149 170 149 132 158 162 164 190 187 183 200 209 217 223 209 179 168 170 182 183 170 155 154 164 152 165 195 177 124 123 160 74 354 325 327 335 331 333 339 339 334 332 332 328 322 316 309 304 305 305 306 308 310 312 314 315 315 315 315 315 315 314 314 314 313 311
145 141 144 146 145 147 147 150 151 151 146 141 156 158 149 162 173 177 180 154 135 138 154 241 150 159 186 217 185 191 223 239 237 205 167 168 172 181 183 161 136 146 178 170 151 197 162 130 138 166 157 287 296 309 309 309 318 329 332 329 328 324 318 310 302 300 300 302 305 309 313 317 320 323 325 326 327 328 330 330 331 331 330 327 324
148 146 148 150 149 146 145 150 155 155 149 149 169 165 149 165 171 164 204 190 138 137 164 34 95 143 286 276 198 152 211 238 229 183 156 184 165 147 133 128 123 159 195 178 154 158 127 127 234 199 150 182 211 292 279 288 305 322 326 324 322 314 311 308 301 299 301 304 310 317 324 329 334 337 338 339 341 344 345 344 344 342 340 337 332
154 154 150 150 153 152 148 152 159 153 150 158 166 161 160 173 158 140 191 161 129 137 134 99 132 152 345 345 103 101 235 286 227 49 338 332 136 113 116 129 144 160 176 174 154 172 176 167 207 162 142 164 329 334 286 271 288 311 315 312 315 312 311 310 305 303 306 312 321 329 339 347 350 349 347 349 349 350 348 345 346 344 341 338 334
154 159 161 156 155 161 155 150 159 161 166 173 165 167 174 173 164 152 140 128 131 142 127 103 129 174 28 54 25 331 194 359 11 10 336 13 84 128 151 141 147 153 169 196 170 163 173 176 187 158 135 142 216 298 289 254 277 304 307 312 320 321 323 325 324 324 325 331 339 347 358 1 356 351 348 350 349 348 348 346 347 345 341 339 337
155 162 169 163 156 162 157 149 165 173 174 175 170 176 175 164 165 149 133 139 126 113 117 119 156 244 271 95 22 24 53 25 28 29 327 23 14 179 166 167 185 177 181 194 183 160 160 192 196 167 128 137 209 294 296 206 282 306 308 319 330 337 345 350 350 351 351 354 0 7 9 1 353 349 348 349 350 351 353 352 350 348 346 342 338
159 160 163 166 164 164 159 158 175 177 171 176 180 182 173 160 155 138 135 140 117 78 95 117 174 260 3 12 55 86 73 51 64 339 313 80 338 330 173 174 174 171 173 176 167 150 153 273 186 166 133 127 156 7 20 258 305 322 324 331 349 1 5 7 5 6 10 14 16 11 0 352 348 348 349 351 354 356 356 356 355 354 349 342 337
163 163 163 171 173 167 162 170 175 170 177 190 183 173 167 162 154 144 144 137 134 129 105 97 333 80 73 351 15 46 226 118 140 236 305 80 298 336 77 133 130 101 97 129 115 133 140 38 141 152 137 129 121 107 287 297 324 347 345 352 16 20 14 13 13 16 23 20 10 358 346 343 343 346 351 353 355 358 359 2 2 356 347 341 338
166 167 170 176 176 167 167 178 174 164 181 190 175 170 168 167 166 159 161 159 157 158 138 152 331 62 123 197 4 357 353 117 171 208 32 210 273 281 165 151 130 88 75 94 87 125 147 135 136 131 119 118 108 112 293 293 284 345 352 8 24 24 20 15 16 17 22 11 353 343 337 338 341 345 351 355 359 6 8 6 0 352 346 343 341
172 171 174 179 179 171 170 180 180 169 175 173 164 175 171 166 176 170 173 177 169 171 166 175 213 144 155 177 199 245 268 275 258 96 49 287 325 332 287 152 124 105 82 94 93 124 164 161 132 101 93 99 8 339 294 289 288 339 351 0 3 15 20 14 10 12 9 357 343 335 335 337 340 347 356 4 11 13 9 2 355 351 350 348 344
177 174 177 182 181 178 178 183 183 168 168 173 169 175 170 165 176 174 176 181 179 186 186 191 193 197 217 196 222 237 204 248 265 155 185 293 323 307 311 344 116 122 128 167 164 166 194 141 117 110 96 338 306 325 296 273 291 345 344 348 345 348 11 11 2 3 358 347 341 335 336 339 344 355 6 13 16 12 3 356 353 354 356 355 348
179 179 179 182 181 180 181 182 181 168 173 185 175 166 161 159 167 172 179 182 185 190 187 199 200 216 251 233 248 251 199 221 274 188 186 190 209 255 313 344 356 123 151 171 168 184 191 129 118 128 103 140 283 344 27 240 274 350 334 337 338 314 354 5 355 355 357 350 345 338 340 347 356 7 14 15 13 6 359 356 357 1 5 1 352
183 183 182 183 181 180 180 180 180 178 183 184 169 164 164 160 163 175 184 184 188 193 193 210 213 221 257 270 280 285 273 248 234 204 196 185 192 215 30 353 347 355 181 173 177 200 191 157 161 187 220 180 226 245 65 192 244 350 336 322 324 304 343 356 353 3 9 3 355 348 350 0 11 14 15 13 7 2 1 1 4 9 11 5 357
187 184 184 186 182 180 181 182 181 182 187 183 171 176 181 176 175 178 184 185 187 194 202 211 218 220 233 252 265 282 314 310 260 289 318 105 69 58 69 17 351 337 275 164 183 214 177 159 167 180 210 294 217 199 83 212 235 328 340 310 299 300 336 348 359 12 14 12 5 0 3 11 21 19 16 10 4 4 7 10 14 16 14 8 3
189 186 184 183 181 181 183 185 186 183 185 185 180 185 190 188 189 187 189 193 190 194 207 212 216 222 222 231 257 271 291 309 312 327 4 68 74 41 39 97 91 339 315 98 183 250 186 152 145 147 188 358 133 195 247 258 234 288 333 305 283 301 329 340 355 359 8 16 14 12 12 17 25 21 15 9 6 9 13 17 21 19 14 12 9
191 190 188 185 183 185 185 187 189 187 187 188 187 191 193 192 197 197 197 201 198 198 208 216 218 223 222 221 235 256 273 293 307 302 297 152 142 313 345 89 100 11 319 0 4 328 323 327 141 151 178 17 39 197 224 233 238 278 318 298 272 288 319 328 329 339 356 12 19 20 15 18 24 20 14 10 9 13 16 20 21 18 14 13 13
196 194 191 190 188 189 190 191 191 191 192 193 192 196 197 196 202 207 205 206 209 208 209 217 221 220 225 224 220 225 244 258 261 254 246 226 193 212 246 226 159 146 103 317 317 342 333 331 21 152 152 75 19 267 236 238 270 294 317 290 261 275 307 313 306 313 334 359 17 19 15 16 19 20 15 11 13 15 17 20 20 17 15 15 15
201 196 191 191 193 194 194 194 195 194 196 199 198 199 202 202 205 211 212 212 215 217 214 217 221 218 222 227 221 221 232 242 248 243 224 213 211 216 237 242 189 195 213 236 300 343 311 314 329 331 226 69 23 276 254 291 299 289 301 284 256 267 292 298 292 296 309 337 3 10 11 12 11 16 16 11 12 14 18 22 21 18 15 15 17
202 198 193 194 196 197 197 197 197 196 197 201 202 202 204 207 207 213 218 216 218 221 220 220 221 216 217 224 225 226 233 242 251 250 226 199 202 216 232 242 222 226 241 235 260 290 278 292 311 306 298 319 338 281 262 292 291 276 296 301 266 269 283 286 284 285 291 308 341 359 1 2 5 10 12 9 7 11 18 23 22 20 16 15 18
201 200 199 200 201 200 200 201 201 198 197 199 203 205 206 209 210 215 221 220 221 223 224 227 228 222 217 219 224 227 230 236 242 250 242 212 205 219 228 234 231 227 228 227 236 263 274 281 290 285 288 298 297 285 277 287 287 279 298 304 285 279 274 270 276 278 279 290 315 343 350 353 0 4 5 4 2 5 15 22 21 19 16 15 18
202 201 202 204 204 203 202 205 205 203 201 199 202 207 208 211 212 214 219 220 222 225 226 229 232 233 227 220 222 225 227 232 233 239 244 230 216 217 219 224 231 232 231 229 225 240 263 272 281 281 279 278 278 278 276 284 286 281 288 296 292 282 264 254 275 278 268 275 298 327 340 344 351 356 2 4 1 1 8 16 19 19 16 14 16
204 203 203 204 205 205 203 206 207 206 206 203 203 208 210 211 213 214 219 221 222 224 228 231 231 233 234 228 226 228 226 230 231 232 239 242 238 232 223 218 223 228 232 231 227 232 249 260 268 272 274 276 276 276 279 285 284 280 286 292 290 284 264 253 278 281 267 267 290 316 327 332 339 348 357 1 0 359 3 10 15 16 17 15 14
206 206 206 204 205 207 206 207 207 206 208 207 206 210 212 214 214 216 221 222 222 223 226 230 231 231 233 232 231 230 229 230 231 231 236 243 247 250 245 232 229 236 242 236 231 231 238 252 261 264 270 276 277 277 277 280 280 278 282 283 281 283 276 267 280 280 266 263 287 306 312 317 324 332 347 359 359 359 2 7 9 12 17 16 13
207 206 206 205 206 207 207 209 209 207 209 209 208 210 212 214 215 218 222 224 224 225 227 229 232 231 232 234 233 232 233 234 234 233 235 238 241 246 251 247 242 248 255 255 251 247 244 250 259 264 268 271 274 277 276 275 277 278 280 281 279 278 274 269 274 275 267 269 288 297 298 305 309 310 325 345 353 354 356 2 5 8 15 17 13
212 207 206 206 207 209 209 210 211 211 211 211 211 211 212 214 216 217 222 226 227 228 230 231 232 234 234 235 236 234 233 235 235 234 235 236 236 239 244 245 242 242 245 247 250 253 252 252 257 263 266 267 271 275 275 268 266 270 275 277 279 280 276 264 256 267 277 282 288 288 288 297 299 298 307 320 331 336 336 349 0 3 10 16 14
215 213 207 205 207 209 209 210 212 213 213 212 213 213 213 215 216 217 219 223 227 229 231 232 233 234 235 235 236 237 236 236 235 236 237 236 235 236 240 244 243 241 243 243 242 242 245 250 255 259 263 266 266 266 267 265 261 260 263 269 275 279 275 259 249 262 273 279 282 281 280 284 286 286 290 296 302 307 311 329 350 359 6 12 13
214 218 214 208 206 208 210 210 212 215 215 215 215 216 217 217 218 219 220 222 226 228 230 233 234 235 236 237 236 236 237 236 236 236 237 237 236 235 238 242 242 240 242 245 246 244 242 242 246 251 257 262 263 264 271 277 272 261 255 259 265 266 262 259 264 268 267 268 273 276 275 275 274 275 277 279 284 287 290 304 326 349 358 3 9
212 218 221 218 209 205 209 212 212 214 217 217 217 217 218 219 219 221 222 223 226 230 232 233 235 237 239 240 241 240 238 237 236 234 234 235 237 237 238 239 240 239 238 240 245 251 254 251 249 253 259 265 268 270 269 267 264 259 254 249 249 251 255 261 269 274 270 268 270 269 271 276 276 276 276 274 272 271 273 281 290 324 346 351 1
214 214 219 225 221 210 206 208 211 214 217 220 220 219 219 219 220 221 223 225 227 230 234 236 237 239 240 242 245 247 247 245 241 237 234 233 234 237 239 240 239 239 238 238 238 243 252 257 257 257 261 264 264 263 261 260 260 257 251 245 244 247 250 254 262 274 277 276 274 268 268 275 275 272 271 270 267 264 262 265 268 286 327 338 346
218 216 214 219 226 223 213 208 209 214 219 223 223 222 222 222 222 221 223 227 229 231 234 237 240 241 243 245 248 250 252 254 252 247 241 237 236 236 238 240 239 239 239 239 238 238 243 249 251 251 251 255 257 258 261 265 266 265 261 261 263 260 255 254 264 274 278 279 276 268 265 271 270 266 266 264 260 259 258 258 260 264 297 321 329
224 219 217 216 221 227 228 220 213 213 220 225 227 227 225 224 225 224 224 226 230 233 235 236 240 242 244 246 249 252 253 255 255 252 248 245 242 240 241 242 242 242 242 240 239 238 239 242 244 245 245 250 254 255 257 261 266 274 282 286 289 288 282 273 266 268 273 274 272 268 270 276 272 266 267 261 250 251 255 253 252 252 273 302 314
263 237 227 222 221 224 231 234 227 219 220 223 227 229 229 228 227 226 226 227 230 234 237 238 239 241 243 245 248 251 254 256 257 253 247 245 245 245 246 247 247 247 246 245 243 241 240 240 241 242 243 245 249 252 253 257 263 269 273 274 275 276 275 270 265 267 271 270 265 262 268 277 275 268 267 259 246 248 251 247 242 239 256 288 304
301 285 260 240 232 227 229 236 239 235 230 226 225 226 228 230 230 228 227 228 230 234 237 240 241 241 242 244 246 249 252 255 259 259 252 245 243 244 245 246 248 250 250 249 248 247 245 243 243 245 245 243 245 248 249 250 252 254 257 262 265 264 265 267 267 268 267 266 265 259 262 272 271 263 262 257 243 245 248 243 236 234 247 273 289
272 276 273 260 250 238 231 233 239 241 240 236 233 229 226 227 230 230 229 228 230 234 237 241 244 244 244 245 246 248 251 252 256 260 260 253 244 241 242 244 247 250 252 252 252 252 250 246 245 246 248 248 247 247 248 249 251 254 257 260 262 261 263 266 267 267 267 270 271 261 256 266 267 255 253 252 239 238 240 234 229 230 244 260 270
247 249 253 257 259 253 241 236 237 240 241 240 241 239 234 229 228 229 229 227 228 232 236 240 245 249 251 251 250 251 252 253 253 255 258 258 249 240 239 243 248 250 253 256 258 258 257 253 250 250 251 253 253 251 251 250 251 254 257 258 256 254 257 260 260 262 265 271 273 257 247 257 262 251 246 244 233 227 228 225 224 229 238 247 252
257 257 255 256 261 266 262 252 245 244 245 244 244 245 243 238 232 229 228 227 228 231 235 239 242 246 250 252 253 254 253 254 255 255 255 255 251 243 239 241 246 249 254 258 260 263 264 262 258 256 256 257 258 257 256 253 252 252 252 251 247 243 245 246 247 254 259 265 271 263 253 260 262 248 239 236 231 227 224 224 225 228 232 237 242
259 261 259 256 257 261 266 264 257 254 253 252 251 250 248 245 239 234 229 226 227 231 235 238 241 244 248 250 251 252 253 253 254 255 255 252 249 245 242 243 244 246 251 256 258 262 266 265 262 260 258 258 259 259 259 257 255 252 248 247 246 244 245 246 249 256 263 264 266 265 264 270 267 248 235 227 221 222 223 224 225 225 228 230 234
269 268 263 259 257 255 257 258 257 257 257 256 255 256 255 251 245 239 232 227 227 231 234 238 241 244 247 249 250 250 251 252 252 252 253 252 250 247 245 244 246 248 251 253 254 257 260 261 259 257 256 256 256 256 256 256 256 253 250 249 248 247 248 251 253 256 260 262 261 259 260 262 259 246 234 219 202 207 216 221 223 223 227 229 228